Regional Weather Roundup
Issued by NWS Northern Indiana

Home | Current Version | Previous Version | Graphics & Text | Print | Product List | Glossary On
Versions: 1 2 3 4 5 6 7 8 9 10 11 12 13 14 15 16 17 18 19 20 21 22 23 24 25 26 27 28 29 30 31 32 33 34 35 36 37 38 39 40 41 42 43 44 45 46 47 48 49 50
000
ASUS43 KIWX 260010
RWRIWX

KIWX WEATHER ROUNDUP
NATIONAL WEATHER SERVICE NORTHERN INDIANA
700 PM EST SUN JAN 25 2015

NOTE: "FAIR" INDICATES FEW OR NO CLOUDS BELOW 12,000 FEET WITH NO
SIGNIFICANT WEATHER AND/OR OBSTRUCTIONS TO VISIBILITY.

* THESE STATIONS ARE NOT UNDER NWS QUALITY CONTROL. THEY ALSO MAY NOT
  REPORT WEATHER SUCH AS PRECIPITATION OR FOG.

INZ001>027-260100-
NORTHERN INDIANA

CITY           SKY/WX    TMP DP  RH WIND       PRES   REMARKS
GARY*          CLOUDY    28  19  69 N14G29    29.93R WCI  17
VALPARAISO     CLOUDY    25  20  81 NE12G20   29.90R WCI  14
6HR MIN TEMP:  25; 6HR MAX TEMP:  31; 6HR PCP:  0.01;

MICHIGAN CITY* MIX PCPN  27  19  74 NE6       29.93R WCI  20
LAPORTE*       PTCLDY    26  22  84 NE10      29.91R FOG     WCI  16
6HR MIN TEMP:  26; 6HR MAX TEMP:  33;

KNOX*          CLOUDY    26  17  69 NE10      29.88R WCI  16
6HR MIN TEMP:  -9; 6HR MAX TEMP:  81;

SOUTH BEND     CLOUDY    24  19  81 NE12      29.91R WCI  13
6HR MIN TEMP:  24; 6HR MAX TEMP:  30; 6HR PCP:  0.07;

GOSHEN         LGT SNOW  24  20  84 NE14G24   29.88R FOG     WCI  12
6HR MIN TEMP:  24; 6HR MAX TEMP:  31; 6HR PCP:  0.01;

MONTICELLO*    LGT SNOW  27  24  91 NE20      29.84R WCI  13
6HR MIN TEMP:  27; 6HR MAX TEMP:  32; 6HR PCP:  0.01;

LOGANSPORT*    LGT SNOW  27  23  86 NE14G21   29.84R WCI  15
ROCHESTER*     CLOUDY    28  27  93 NE12G20   29.86R FOG     WCI  18
WARSAW*        LGT SNOW  25  23  93 NE10G18   29.86R WCI  15
ANGOLA*        CLOUDY    21  18  86 NE10      29.87R WCI  10
FORT WAYNE     LGT SNOW  21  18  88 NE18G29   29.85R FOG     WCI   6
6HR MIN TEMP:  21; 6HR MAX TEMP:  28; 6HR PCP:  0.10;

HUNTINGTON*    LGT SNOW  22  16  79 NE12G18   29.84R WCI  10
6HR MIN TEMP:  22; 6HR MAX TEMP:  29; 6HR PCP:  0.03;

PERU/GRISSOM   LGT SNOW  24  21  87 NE22      29.81R FOG     WCI   9
6HR MIN TEMP:  24; 6HR MAX TEMP:  33; 6HR PCP:  0.17;

MARION*        CLOUDY    22  20  89 NE20G29   29.80R FOG     WCI   8
6HR MIN TEMP:  -2; 6HR MAX TEMP:  46; 6HR PCP:  0.01;


$$
INZ028>050-260100-
CENTRAL INDIANA

CITY           SKY/WX    TMP DP  RH WIND       PRES   REMARKS
LAFAYETTE      FLURRIES  27  23  85 NE16G24   29.82R WCI  15
6HR MIN TEMP:  27; 6HR MAX TEMP:  33; 6HR PCP:  0.03;

KOKOMO*        CLOUDY    25  18  74 E23G31    29.81R WCI  10
6HR MIN TEMP:  25; 6HR MAX TEMP:  34; 6HR PCP:  0.05;

MUNCIE*        LGT SNOW  24  20  84 NE17G25   29.77R FOG     WCI  11
6HR MIN TEMP:  24; 6HR MAX TEMP:  35; 6HR PCP:  0.14;

INDIANAPOLIS   LGT SNOW  28  27  96 NE17      29.72R FOG     WCI  16
6HR MIN TEMP:  28; 6HR MAX TEMP:  37; 6HR PCP:  0.04;


$$
MIZ043>046-050>051-056>058-064>065-071>073-077>080-260100-
SOUTHWEST LOWER MICHIGAN

CITY           SKY/WX    TMP DP  RH WIND       PRES   REMARKS
BATTLE CREEK   CLOUDY    25  11  55 NE13      29.91R WCI  14
6HR MIN TEMP:  25; 6HR MAX TEMP:  27;

BENTON HARBOR  CLOUDY    24  14  65 VRB6      29.94R WCI  17
6HR MIN TEMP:  24; 6HR MAX TEMP:  27;

COLDWATER*     LGT SNOW  23  19  84 NE5       29.89R WCI  17
6HR MIN TEMP:  23; 6HR MAX TEMP:  26;

HILLSDALE*     CLOUDY    24  15  69 NE12      29.87R WCI  12
6HR MIN TEMP:  22; 6HR MAX TEMP:  25;

HOLLAND        PTCLDY    22  10  60 NE9G18    29.98R WCI  12
6HR MIN TEMP:  22; 6HR MAX TEMP:  26;

GRAND RAPIDS   PTCLDY    19  11  70 NE16      29.97R WCI   4
6HR MIN TEMP:  19; 6HR MAX TEMP:  22;

KALAMAZOO      CLOUDY    24  12  60 NE10G18   29.92R WCI  14
6HR MIN TEMP:  24; 6HR MAX TEMP:  27; 6HR PCP: TRACE;

STURGIS*       FLURRIES  21  19  93 NE9G16    29.88R WCI  11
THREE RIVERS*  MOCLDY    24  16  71 NE12      29.91R WCI  13
6HR MIN TEMP:  24; 6HR MAX TEMP:  27;


$$
OHZ001>008-015>018-024>025-260100-
NORTHWEST OHIO

CITY           SKY/WX    TMP DP  RH WIND       PRES   REMARKS
WAUSEON*       LGT RAIN  19  16  86 E17       29.90R WCI   4
DEFIANCE       LGT SNOW  20  16  84 NE16      29.89R FOG     WCI   6
6HR MIN TEMP:  20; 6HR MAX TEMP:  26; 6HR PCP:  0.02;

FINDLAY        LGT SNOW  21  17  84 NE22G29   29.84R VSB 3/4 WCI   5
6HR MIN TEMP:  21; 6HR MAX TEMP:  28; 6HR PCP:  0.02;

TOLEDO EXPRESS LGT SNOW  19  13  77 NE13      29.91R WCI   6
6HR MIN TEMP:  19; 6HR MAX TEMP:  24; 6HR PCP:  0.01;

TOLEDO METCALF LGT SNOW  19  12  74 NE14G25   29.93R WCI   6
6HR MIN TEMP:  19; 6HR MAX TEMP:  24; 6HR PCP: TRACE;

LIMA           LGT SNOW  22  18  85 NE21G28   29.80R VSB 3/4 WCI   6
6HR MIN TEMP:  22; 6HR MAX TEMP:  32; 6HR PCP:  0.04;


$$
AND FOR LAKE MICHIGAN COASTAL AND OPEN LAKE BUOY OBSERVATIONS

STATION/POSITION TEMP    WIND        PRES    VSBY  WAVE
                 AIR SEA DIR/SP/G                  HT/PER
                 (F)     (DEG/KT/KT) (MB)    (MI)  (FT/S)
CALUMET HARBOR    27      10/ 19/ 25   N/A
MICHIGAN CITY     25      30/ 21/ 23   N/A
SAINT JOSEPH      25      20/  5/ 13 1014.9R

$$
&&



USA.gov is the U.S. government's official web portal to all federal, state and local government web resources and services.